Flag for United Kingdom Weather past 2 weeks in Newcastle upon Tyne, England, United Kingdom

Now
55 °F

Passing clouds.


Feels Like: 52 °F
Forecast: 44 / 53 °F
Wind: 14 mph from West

Location: Newcastle

Current Time: May 30, 2015 at 5:44:53 PM

Latest Report: May 30, 2015 at 5:20 PM


Visibility: N/A

Pressure: 29.83 "Hg

Humidity: 51%

Dew point: 37 °F

Location of Newcastle upon TyneLocation

Historic Weather in Newcastle upon Tyne — Graph

°F

Newcastle upon Tyne temperature yesterday

Maximum temperature yesterday: 55 °F (at 6:50 PM)
Minimum temperature yesterday: 43 °F (at 3:20 AM)
Average temperature yesterday: 47 °F

Past Weeks' High & Low Weather Summary

 TemperatureHumidityPressure
High64 °F (May 23, 4:50 PM)100% (May 16, 2:50 AM)30.27 "Hg (May 16, 2:50 AM)
Low39 °F (May 19, 12:20 AM)36% (May 23, 7:20 PM)29.36 "Hg (May 19, 1:20 AM)
Average51 °F75%29.93 "Hg
* Reported May 15 4:20 PM — May 30 4:20 PM, Newcastle upon Tyne, Weather by CustomWeather, © 2015

Note: Actual official high and low records may vary slightly from our data, if they occured in-between our weather recording intervals... More about our weather records

Advertising

Newcastle upon Tyne weather history for previous 24 hours

 ConditionsComfort  
Time TempWeatherWind HumidityBarometerVisibility
4:20 PM
Sat, May 30
57 °FPassing clouds.16 mph48%29.83 "HgN/A
3:50 PM55 °FPassing clouds.15 mph51%29.83 "HgN/A
3:20 PM57 °FPassing clouds.16 mph48%29.83 "HgN/A
2:50 PM57 °FPassing clouds.16 mph51%29.83 "HgN/A
2:20 PM57 °FPassing clouds.17 mph48%29.83 "HgN/A
1:50 PM57 °FPassing clouds.17 mph51%29.83 "HgN/A
1:20 PM57 °FPassing clouds.17 mph51%29.83 "HgN/A
12:50 PM55 °FPassing clouds.16 mph55%29.83 "HgN/A
12:20 PM55 °FPassing clouds.16 mph55%29.83 "HgN/A
11:50 AM55 °FPassing clouds.16 mph51%29.80 "HgN/A
11:20 AM54 °FPassing clouds.16 mph58%29.80 "HgN/A
10:50 AM54 °FPassing clouds.18 mph54%29.80 "HgN/A
10:20 AM52 °FPassing clouds.16 mph58%29.80 "HgN/A
9:50 AM50 °FPassing clouds.15 mph67%29.80 "HgN/A
9:20 AM50 °FPassing clouds.15 mph67%29.80 "HgN/A
8:50 AM48 °FPassing clouds.14 mph71%29.80 "HgN/A
8:20 AM48 °FPassing clouds.17 mph71%29.77 "HgN/A
7:50 AM46 °FPassing clouds.17 mph76%29.77 "HgN/A
7:20 AM45 °FSunny.15 mph81%29.77 "Hg10 mi
6:50 AM43 °FSunny.16 mph87%29.77 "Hg10 mi
6:20 AM43 °FSunny.12 mph87%29.77 "Hg10 mi
5:50 AM41 °FSunny.12 mph93%29.74 "Hg10 mi
5:20 AM39 °FClear.10 mph100%29.74 "Hg10 mi
4:20 AM39 °FClear.10 mph100%29.74 "Hg10 mi
3:50 AM41 °FClear.13 mph93%29.71 "Hg10 mi
3:20 AM39 °FClear.9 mph93%29.71 "Hg10 mi
2:50 AM41 °FClear.12 mph93%29.71 "Hg10 mi
2:20 AM41 °FPassing clouds.13 mph93%29.71 "HgN/A
1:50 AM41 °FPassing clouds.12 mph93%29.71 "HgN/A
1:20 AM41 °FClear.12 mph93%29.71 "Hg10 mi
12:50 AM43 °FClear.9 mph81%29.68 "Hg10 mi
12:20 AM43 °FClear.10 mph81%29.68 "Hg10 mi
11:50 PM
Fri, May 29
43 °FClear.12 mph81%29.68 "Hg10 mi
11:20 PM43 °FPassing clouds.9 mph81%29.68 "HgN/A
10:50 PM45 °FClear.10 mph76%29.68 "Hg10 mi
10:20 PM45 °FSunny.9 mph76%29.65 "Hg10 mi
9:20 PM46 °FPassing clouds.9 mph71%29.65 "HgN/A
8:50 PM48 °FPassing clouds.10 mph66%29.62 "HgN/A
8:20 PM50 °FPassing clouds.12 mph62%29.62 "HgN/A
7:50 PM52 °FPassing clouds.17 mph58%29.62 "HgN/A
7:20 PM54 °FPassing clouds.16 mph54%29.59 "HgN/A
6:50 PM55 °FScattered showers. Passing clouds.14 mph55%29.59 "HgN/A
6:20 PM54 °FScattered showers. Scattered clouds.7 mph67%29.59 "HgN/A
5:50 PM54 °FSprinkles. Scattered clouds.10 mph54%29.59 "HgN/A
5:20 PM50 °FSprinkles. Scattered clouds.10 mph76%29.59 "HgN/A
Weather by CustomWeather, © 2015

See weather overviewHow to use our weather pages